Regional Weather Roundup
Issued by NWS

Home | Current Version | Previous Version | Graphics & Text | Print | Product List | Glossary On
Versions: 1 2 3 4 5 6 7 8 9 10 11 12 13 14 15 16 17 18 19 20 21 22 23 24 25 26 27 28 29 30 31 32 33 34 35 36 37 38 39 40 41 42 43 44 45 46 47 48 49 50
000
ASUS43 KLSX 212259
RWRMO

WEATHER SUMMARY FOR MISSOURI
NATIONAL WEATHER SERVICE SPRINGFIELD MO
600 PM CDT MON JUL 21 2014

NOTE: "FAIR" INDICATES FEW OR NO CLOUDS BELOW 12,000 FEET WITH NO
       SIGNIFICANT WEATHER AND/OR OBSTRUCTIONS TO VISIBILITY.
       CURRENT SKY AND/OR WEATHER CONDITIONS ARE NOT AVAILABLE FOR
       CHILLICOTHE AND FARMINGTON.

MOZ001>031-035>038-043-044-053-054-220000-
...NORTHERN AND WESTERN MISSOURI...

CITY           SKY/WX    TMP DP  RH WIND       PRES   REMARKS
KANSAS CTY INT PTSUNNY   91  74  57 S17       29.95S HX 100
KANSAS C DTWN  MOSUNNY   94  73  50 S14       29.93F HX 103
LEE`S SUMMIT   SUNNY     90  74  59 S12G18    29.97F HX  99
ST JOSEPH      MOSUNNY   92  77  61 S15       29.91F HX 105
CHILLICOTHE      N/A     90  75  61 S13       29.95F HX 100
KIRKSVILLE     SUNNY     87  73  62 S12       29.99F HX  94

$$
MOZ066>068-077>081-088>096-101>105-220000-
...SOUTHWEST MISSOURI...

CITY           SKY/WX    TMP DP  RH WIND       PRES   REMARKS
SPRINGFIELD    SUNNY     88  67  49 S8        30.04F HX  91
JOPLIN         SUNNY     92  70  48 S8        30.01F HX  97

$$
MOZ032>034-039>042-045>050-055>058-069>072-220000-
...CENTRAL MISSOURI...

CITY           SKY/WX    TMP DP  RH WIND       PRES   REMARKS
COLUMBIA       SUNNY     87  68  52 S10       30.02S HX  90
JEFFERSON CITY SUNNY     88  66  48 S8        30.00S HX  90
ROLLA          SUNNY     86  64  47 S3        30.03F
SEDALIA        SUNNY     89  73  59 S12       30.01F HX  97
OSAGE BEACH    SUNNY     90  66  45 SE5       30.02S HX  92

$$
MOZ051-052-059>065-220000-
...EAST CENTRAL MISSOURI...

CITY           SKY/WX    TMP DP  RH WIND       PRES   REMARKS
ST LOUIS INTL  SUNNY     88  66  48 S6        30.04S HX  90
SPIRIT OF STL  SUNNY     87  64  46 S6        30.02F
ST CHARLES     SUNNY     87  66  49 S9        30.02F

$$
MOZ072>076-082>087-097>100-106>115-220000-
...SOUTH CENTRAL AND SOUTHEAST MISSOURI...

CITY           SKY/WX    TMP DP  RH WIND       PRES   REMARKS
CAPE GIRARDEAU SUNNY     84  64  50 SW3       30.05S
FARMINGTON     SUNNY     82  64  54 CALM      30.09S
POPLAR BLUFF   SUNNY     84  63  49 CALM      30.04S
WEST PLAINS    MOSUNNY   82  64  54 SW5       30.09S

$$



USA.gov is the U.S. government's official web portal to all federal, state and local government web resources and services.